Location: *
(58.4167°N, 22.5000°E)
Time: 14:30:18
(UTC+00:00)

MOS 1 Rocket - Pass Details

Date: 22 September 2019
Orbit: 614 x 831 km, 97.4° (Epoch: 17 October)

Event Time Altitude Azimuth Distance (km) Brightness Sun altitude
Rises 21:07:40 0° 13° (NNE) 3,314 7.6 -29.6°
Reaches altitude 10° 21:10:06 10° 9° (N) 2,353 6.7 -29.7°
Enters shadow 21:15:01 52° 300° (WNW) 940 4.1 -29.9°
